#timestamp,LO_Frequency,Hit,StdDev 
1513249215.6,286046981.1,Y
1513249235.5,286046987.2,P
1513249255.3,286046986.6,P
1513249275.1,286046984.3,P
1513249295.9,286046987.6,Y
1513249315.7,286046998.3,P
1513249335.5,286047000.5,N
1513249355.4,286046996.6,N
1513249375.2,286046999.9,N
1513249395.0,286047007.6,N
1513249395.9,286047007.6,N
1513249415.7,286047010.4,N
1513249435.6,286047007.8,N
1513249455.4,286047010.0,N
1513249475.2,286047010.6,N
1513249495.1,286047007.8,N
1513249496.0,286047007.8,N
1513249515.8,286047011.8,N
1513249535.6,286047014.8,N
1513249555.5,286047010.2,N
1513249575.3,286047008.7,N
1513249595.1,286047003.2,N
1513249615.9,286047004.3,N
1513249635.7,286047006.1,N
1513249655.5,286047008.9,N
1513249675.3,286047003.3,N
1513249695.2,286047005.4,N
1513249715.0,286047008.0,N
1513249715.9,286047008.0,N
1513249735.7,286047007.5,N
1513249755.6,286047005.7,N
1513249775.4,286047007.2,N
1513249795.2,286047006.3,N
1513249815.1,286047006.4,N
1513249816.0,286047006.4,N
1513249835.8,286047009.5,N
1513249855.6,286047011.4,Y
1513249875.5,286047005.2,P
1513249895.3,286047003.6,P
1513249915.1,286047002.1,N
1513249935.9,286047001.0,N
1513249955.7,286046997.5,N
1513249975.5,286046993.6,N
1513249995.4,286046994.4,N
1513250015.2,286046987.5,N
1513250035.0,286046989.8,N
1513250035.9,286046989.8,N
1513250055.8,286046990.8,N
1513250075.6,286046990.2,N
1513250095.4,286046990.5,N
1513250115.2,286046987.5,N
1513250135.1,286046991.0,N
1513250136.0,286046991.0,N
1513250155.8,286046993.1,N
1513250175.6,286046996.7,N
1513250195.5,286047002.4,N
1513250215.3,286047001.6,N
1513250235.1,286047003.5,N
1513250255.9,286047006.3,N
1513250275.7,286047009.1,N
1513250295.5,286047003.0,N
1513250315.4,286047003.6,N
1513250335.2,286047002.5,N
1513250355.0,286047004.4,N
1513250355.9,286047004.4,N
1513250375.8,286047004.7,N
1513250395.6,286047008.8,N
1513250415.4,286047006.5,N
1513250435.2,286047005.7,N
1513250455.1,286047004.7,N
1513250456.0,286047004.7,N
1513250475.8,286047006.5,N
1513250495.6,286047004.9,N
1513250515.5,286047001.9,N
1513250535.3,286047000.4,N
1513250555.1,286046996.8,N
1513250575.9,286046993.3,N
1513250595.7,286046996.0,N
1513250615.5,286046994.7,N
1513250635.4,286046995.1,N
1513250655.2,286046997.2,N
1513250675.0,286047001.0,N
1513250675.9,286047001.0,N
1513250695.8,286047002.7,N
1513250715.6,286047002.4,N
1513250735.4,286047000.6,N
1513250755.3,286047000.7,N
1513250775.1,286046999.8,N
1513250776.0,286046999.8,N
1513250795.8,286046999.1,N
1513250815.7,286047000.3,N
1513250835.5,286047001.9,N
1513250855.3,286047003.5,N
1513250875.2,286047006.4,N
1513250895.9,286047007.6,N
1513250915.7,286047007.5,N
1513250935.6,286047004.8,N
1513250955.4,286047003.7,N
1513250975.2,286047004.1,N
1513250995.0,286047005.7,N
1513250996.0,286047005.7,N
1513251015.8,286047008.4,N
1513251035.6,286047009.9,N
1513251055.4,286047003.8,N
1513251075.3,286047002.6,N
1513251095.1,286047002.4,N
1513251115.8,286047003.6,N
1513251135.7,286046998.1,N
1513251155.5,286046997.1,N
1513251175.3,286046993.5,N
1513251195.2,286046992.0,N
1513251215.9,286046990.1,N
1513251235.7,286046989.9,N
1513251255.6,286046988.8,N
1513251275.4,286046984.1,N
1513251295.2,286046982.7,N
1513251315.0,286046986.6,N
1513251316.0,286046986.6,N
1513251335.8,286046989.9,N
1513251355.6,286046988.9,N
1513251375.4,286046985.5,N
1513251395.3,286046987.6,N
1513251415.1,286046988.9,N
1513251435.8,286046988.9,N
1513251455.7,286046992.8,N
1513251475.5,286046990.7,N
1513251495.3,286046991.6,N
1513251515.2,286046988.2,N
1513251535.9,286046988.2,N
1513251555.7,286046990.8,N
1513251575.6,286046988.2,N
1513251595.4,286046985.6,N
1513251615.2,286046983.8,N
1513251635.1,286046984.2,N
1513251636.0,286046984.2,N
1513251655.8,286046984.4,Y
1513251675.6,286046997.0,P
1513251695.5,286046996.5,N
1513251715.3,286046997.8,N
1513251735.1,286046998.3,N
1513251755.8,286047000.8,N
1513251775.7,286046998.1,N
1513251795.5,286046998.8,N
1513251815.3,286046997.8,N
1513251835.2,286046997.2,N
1513251855.9,286046999.4,N
1513251875.7,286047001.4,N
1513251895.6,286047001.3,N
1513251915.4,286047001.6,N
1513251935.2,286047005.7,N
1513251955.1,286047006.2,N
1513251956.0,286047006.2,N
1513251975.8,286047009.5,N
1513251995.6,286047008.4,N
1513252015.5,286047011.9,N
1513252035.3,286047011.9,N
1513252055.1,286047008.5,N
1513252075.8,286047004.5,N
1513252095.7,286047007.4,N
1513252115.5,286047003.2,N
1513252135.3,286047002.8,N
1513252155.2,286046999.0,N
1513252175.9,286046999.6,N
1513252195.7,286047004.0,N
1513252215.6,286047005.5,N
1513252235.4,286047006.8,N
1513252255.2,286047008.6,N
1513252275.1,286047010.2,N
1513252276.0,286047010.2,N
1513252295.8,286047010.6,N
1513252315.6,286047006.8,N
1513252335.4,286047000.2,N
1513252355.3,286046996.5,N
1513252375.1,286047000.9,N
1513252395.8,286047002.4,N
1513252415.7,286047002.7,N
1513252435.5,286047003.3,N
1513252455.3,286047005.5,N
1513252475.2,286047003.6,N
1513252495.9,286047005.9,N
1513252515.7,286047007.5,N
1513252535.6,286047003.1,N
1513252555.4,286046998.9,N
1513252575.2,286046999.2,N
1513252595.1,286046999.2,N
1513252596.0,286046999.2,N
1513252615.8,286047000.5,N
1513252635.6,286047002.4,N
1513252655.5,286047002.2,N
1513252675.3,286047003.9,N
1513252695.1,286047002.2,N
1513252715.8,286047000.3,N
1513252735.7,286047003.0,N
1513252755.5,286047006.0,N
1513252775.3,286047002.7,N
1513252795.2,286047002.6,N
